Location: Foligno
(42.9600°N, 12.7050°E)
Time: 21:15:26
(UTC+01:00)

ISS - Pass Details

Date: 16 January 2018
Orbit: 402 x 407 km, 51.6° (Epoch: 17 January)

Event Time Altitude Azimuth Distance (km) Brightness Sun altitude
Exits shadow 06:09:35 22° 229° (SW) 943 -2.3 -15.7°
Maximum altitude 06:09:43 22° 225° (SW) 942 -2.3 -15.7°
Drops below altitude 10° 06:12:19 10° 172° (S) 1,456 -0.7 -15.3°
Sets 06:14:40 0° 157° (SSE) 2,312 0.6 -14.8°
